Regional Weather Roundup
Issued by NWS

Home | Current Version | Previous Version | Text Only | Print | Product List | Glossary On
Versions: 1 2 3 4 5 6 7 8 9 10 11 12 13 14 15 16 17 18 19 20 21 22 23 24 25 26 27 28 29 30 31 32 33 34 35 36 37 38 39 40 41 42 43 44 45 46 47 48 49 50
000
ASUS45 KABQ 162201
RWRNM
NEW MEXICO REGIONAL WEATHER ROUNDUP
NATIONAL WEATHER SERVICE ALBUQUERQUE NM
400 PM MDT WED AUG 16 2017

NOTE: "FAIR" MEANS FEW OR NO CLOUDS BELOW 12,000 FEET AGL WITH NO
       SIGNIFICANT WEATHER OR OBSTRUCTIONS TO VISION.

      THIS PRODUCT IS RELEASED AS TWO VERSIONS.  ONE VERSION NEAR
      THE TOP OF THE HOUR CONTAINING PRELIMINARY DATA FROM ALBUQUERQUE
      AND OTHER STATIONS.  A FINAL VERSION WITH ADDITIONAL DATA IS
      ISSUED ABOUT 10 MINUTES AFTER THE HOUR.

NMZ501-503-504-510>518-162300-
NORTHWEST PLATEAU/NORTHCENTRAL MOUNTAINS

CITY           SKY/WX    TMP DP  RH WIND       PRES   REMARKS
FARMINGTON     FAIR      86  26  11 SW17      30.10F
LOS ALAMOS     PTSUNNY   76  31  19 E6        30.23F
SANTA FE       FAIR      83  31  15 SW9       30.15F
TAOS           PTSUNNY   78  34  20 W14       30.22F
ANGEL FIRE     FAIR      70  36  29 W17       30.32R

$$
NMZ402-403-502-505>509-162300-
WESTCENTRAL MOUNTAINS/SOUTHWEST MOUNTAINS

CITY           SKY/WX    TMP DP  RH WIND       PRES   REMARKS
GALLUP         FAIR      81  28  14 S12G23    30.20F
GRANTS         FAIR      81  27  13 CALM      30.20F
SILVER CITY    FAIR      84  35  17 W6        30.15F

$$
NMZ407-409-411-412-162300-
SOUTHERN DESERTS

CITY           SKY/WX    TMP DP  RH WIND       PRES   REMARKS
DEMING         FAIR      90  45  21 W14G21    30.07F
LAS CRUCES     FAIR      91  37  15 W13G22    30.08S
HOLLOMAN AFB   FAIR      94  40  15 SW5       30.05F
ALAMOGORDO     FAIR      91  39  16 W9        30.05F
T OR C         PTSUNNY   90  41  18 S6        30.07F

$$
NMZ519>523-162300-
CENTRAL VALLEYS/CENTRAL HIGHLANDS

CITY           SKY/WX    TMP DP  RH WIND       PRES   REMARKS
ALBUQUERQUE    FAIR      86  30  13 SW7       30.10F
DOUBLE EAGLE   MOSUNNY   86  34  15 MISG      30.14F
CLINES CORNERS FAIR      78  33  19 SW8G24    30.23F
BELEN          NOT AVBL
SOCORRO        FAIR      89  35  14 SE7       30.07F

$$
NMZ524>526-539-540-162300-
SOUTHCENTRAL MOUNTAINS

CITY           SKY/WX    TMP DP  RH WIND       PRES   REMARKS
RUIDOSO        FAIR      81  37  21 SW7G17    30.25S

$$
NMZ527>531-162300-
NORTHEAST HIGHLANDS/NORTHEAST PLAINS

CITY           SKY/WX    TMP DP  RH WIND       PRES   REMARKS
LAS VEGAS      PTSUNNY   78  37  22 S16       30.18F
RATON          FAIR      78  44  29 S10G22    30.14F
CLAYTON        FAIR      79  49  34 W5        30.10S

$$
NMZ532>537-162300-
EASTCENTRAL PLAINS

CITY           SKY/WX    TMP DP  RH WIND       PRES   REMARKS
SANTA ROSA     FAIR      88  37  16 NE8       30.04F
TUCUMCARI      FAIR      90  45  21 NE7       30.01F
CANNON AFB     FAIR      86  51  30 NE10      30.06F
CLOVIS AIRPORT NOT AVBL

$$
NMZ028-029-538-162300-
SOUTHEAST PLAINS

CITY           SKY/WX    TMP DP  RH WIND       PRES   REMARKS
ROSWELL        PTSUNNY   93  44  18 E8        29.97F
ARTESIA        FAIR      93  46  20 SW8G16    29.98F
CARLSBAD       FAIR      95  48  20 CALM      29.96F
HOBBS          SUNNY     93  48  21 N12       30.00F


$$



USA.gov is the U.S. government's official web portal to all federal, state and local government web resources and services.